National Oceanic Atmosphere Administration National Weather Service Headquarters National Weather Service Headquarters
NOAA logo WFO Anchorage Scalable transition graphic NWS logo
Transition from title bar to navgation bar   Aviation Weather 05 AKDT 
blankspace Home   |   Mobile   |   Social Media   |   Mesonet   |   Surface Map   |   Radar   |   Submit Storm Reports =13 GMT 

LocalForecast by City, St or Zip Code

spacer

Forecasts/Products
  Public
  Forecast Discussion
    - With Glossary
  Aviation
  Marine
  Hydrology(RFC)
  Rivers & Lakes AHPS
  Ice Desk
  TV Weather
  Fire Weather
  Avalanche
  Travel 511
  Graphical
  xml logo RSS Feeds
  Marine FTPMail

spacer

Data
  Mesonet
  Model Graphics
  Local Model
  Observations
  Marine Obs
  Satellite/Radar
  Vent Factor
  Soaring Index
  Weather Links

spacer

Climate
  PAFC Climate
  Interactive Climate
  PAFC Records
  Local
  National
  More

spacer

Outreach
  About Us
  Community Outreach
  Kids' Page
  Tour/Speaker Request
  Weather Classroom
  Social Media

spacer

Reports
  COOP Observers
  Local Storm Reports
  Spotter Page
  Submit a Storm Report

spacer

Miscellaneous
  Archived Alaska Weather Stories
  Student Career Opportunities
  Research Papers

spacer

Print Friendly/
Low Bandwidth

  Public Forecasts
  Marine Forecasts

spacer

Contact Us
  mailto pafcweb

spacer

Facebook Follow the National Weather Service in Alaska on Twitter
USA.gov is the U.S. government's official web portal to all federal, state and local government web resources and services.


 ICAO ID:   AAWU Graphics

Internet access to TAFs and METAR observations is for planning purposes only. We can not guarantee the timeliness of internet products. Before flying please get a formal pilot briefing (1-800-992-7433) and ALWAYS file a Flight Plan!Pilot briefings are provided to licensed aircraft pilots, ONLY! Others may not use the above number to obtain weather information.

Check out the Key to TAFs and METARs for help with decoding the information.

A 12 hour summary of TAFs can be found here.

PANC TAF
PANC 181130Z 1812/1918  35007KT P6SM -RA FEW008 BKN050 OVC100
     FM190200 35004KT P6SM -RA SCT008 SCT030 BKN040
     FM191600 00000KT P6SM VCFG FEW005 SCT040 BKN060=


METAR PANC 181253Z 00000KT 10SM SCT010 BKN060 OVC080 09/07 A2911 RMK
 AO2 RAB26E36 SLP857 P0000 T00940072=
METAR PANC 181253Z 00000KT 10SM SCT010 BKN060 OVC080 09/07 A2911=
METAR PANC 181153Z 35006KT 10SM FEW015 BKN065 OVC080 09/07 A2912 RMK
 AO2 RAE08 SLP862 P0001 60012 70012 T00890072 10100 20089 58016=
METAR PANC 181153Z 35006KT 10SM FEW015 BKN065 OVC080 09/07 A2912=
METAR PANC 181053Z 36003KT 10SM -RA SCT008 BKN065 OVC085 09/07 A2914 RMK
     AO2 RAE21B51 SLP868 P0000 T00940072=
METAR PANC 181053Z 36003KT 10SM -RA SCT008 BKN065 OVC085 09/07 A2914=
METAR PANC 180953Z 01003KT 10SM -RA SCT008 BKN050 BKN090 OVC200
 09/08 A2916 RMK AO2 SLP874 P0010 T00940078=
METAR PANC 180953Z 01003KT 10SM -RA SCT008 BKN050 BKN090 OVC200 09/08
     A2916=


National Weather Service
Anchorage Forecast Office
6930 Sand Lake Road
Anchorage, Ak 99502
(907) 266-5105 M-F/7-5pm
About Us
Career Opportunities
Glossary
Disclaimer
Privacy Policy
Credits
Alaska Weather Information Line:
1-800-472-0391